Overview Statistics Trail Chart Weather Telemetry Raw packets
 

This is the latest recevied weather packets stored in our database for station/object OE5MMP-13. If no packets are shown the sender has not sent any weather packets the latest 10 day(s).

<< 48 49 50 51 52 53 54 >>
Time Temp. Humidity Pressure Rain* Wind** Luminosity Snow
1787945005 17.78° C 88% 1014.7 hPa 0.25 mm - 0 W/m² -
1787944405 17.78° C 88% 1014.5 hPa 0 mm - 0 W/m² -
1787943805 17.78° C 88% 1015 hPa 0 mm - 0 W/m² -
1787943205 17.78° C 88% 1015 hPa 0 mm - 0 W/m² -
1787942605 18.33° C 88% 1015 hPa 0 mm - 0 W/m² -
1787942005 18.33° C 88% 1015.1 hPa 0 mm - 0 W/m² -
1787941405 18.33° C 88% 1015.1 hPa 0 mm - 0 W/m² -
1787940806 17.78° C 88% 1014.8 hPa 0 mm - 0 W/m² -
1787940205 17.78° C 88% 1014.3 hPa 0 mm - 0 W/m² -
1787939605 18.33° C 87% 1014.3 hPa 0 mm - 0 W/m² -
1787939005 18.33° C 87% 1014.6 hPa 0 mm - 9 W/m² -
1787938405 18.33° C 87% 1014.9 hPa 0 mm - 14 W/m² -
1787937804 18.33° C 87% 1015 hPa 0 mm - 21 W/m² -
1787937205 18.33° C 87% 1015 hPa 0 mm - 32 W/m² -
1787936605 18.33° C 86% 1014.7 hPa 6.86 mm - 51 W/m² -
1787936005 18.33° C 86% 1014.3 hPa 7.87 mm - 63 W/m² -
1787935404 18.33° C 86% 1014.9 hPa 7.87 mm - 54 W/m² -
1787934805 18.33° C 85% 1014.9 hPa 7.87 mm - 68 W/m² -
1787934205 18.33° C 85% 1015.1 hPa 7.87 mm - 146 W/m² -
1787933605 18.33° C 84% 1015.5 hPa 7.87 mm - 269 W/m² -
1787933005 20° C 76% 1016.9 hPa 1.52 mm - 40 W/m² -
1787932404 20.56° C 75% 1016.1 hPa 0.51 mm - 18 W/m² -
1787931805 21.67° C 72% 1015.6 hPa 0.51 mm - 72 W/m² -
1787931204 21.67° C 74% 1015.3 hPa 0.51 mm - 60 W/m² -
1787930604 21.67° C 77% 1015.3 hPa 0.51 mm - 61 W/m² -

* Rain latest hour (hover to see other rain measurements)
** Current wind speed in m/s (hover to see current wind gust speed)